Location: Hohenfelde
(53.8441°N, 9.6220°E)
Time: 11:00:55
(UTC+00:00)

Meteor 1-13 Rocket - Pass Details

Date: 14 July 2020
Orbit: 830 x 913 km, 81.3° (Epoch: 13 August)

Event Time Altitude Azimuth Distance (km) Brightness Sun altitude
Rises 01:03:17 0° 346° (NNW) 3,511 8.4 -11.7°
Reaches altitude 10° 01:05:47 10° 348° (NNW) 2,555 7.6 -11.6°
Maximum altitude 01:11:36 78° 75° (ENE) 894 4.4 -11.3°
Drops below altitude 10° 01:17:15 10° 162° (SSE) 2,481 6.2 -10.9°
Enters shadow 01:18:34 - 163° (SSE) 2,989 6.6 -10.8°
